Location: Holmbach
(49.5093°N, 8.8411°E)
Time: 04:32:13
(UTC+00:00)

SL-16 R/B - Pass Details

Date: 17 June 2025
Orbit: 841 x 847 km, 71.0° (Epoch: 12 July)

Event Time Altitude Azimuth Distance (km) Brightness Sun altitude
Rises 20:46:18 0° 329° (NNW) 3,409 7.7 -8.9°
Reaches altitude 10° 20:48:45 10° 328° (NNW) 2,471 6.3 -9.2°
Maximum altitude 20:54:23 70° 246° (WSW) 898 2.4 -9.7°
Enters shadow 20:59:42 12° 164° (SSE) 2,345 3.9 -10.2°
